Simultaneous Nadir Overpasses (SNOs) Predictions

Prediction of SNOs between GOES-15 and NPP Satellite Orbit:

Table of predicted SNOs for the next 14.0 days since TLE Epoch: 6/10/2016
Index Date Time (GOES-15) GOES-15 Lat,Lon NPP Lat,Lon Distance(km) Time Diff (sec)
1 06/11/2016 10:21:54 -0.01,-135.28 -0.35,-133.71 179.00 80
2 06/12/2016 22:41:12 0.03,-135.29 -0.78,-139.02 424.42 80
3 06/13/2016 22:25:06 0.02,-135.32 0.19,-134.48 94.91 80
4 06/15/2016 10:44:14 -0.04,-135.38 0.92,-139.77 499.45 80
5 06/16/2016 10:28:09 -0.04,-135.40 -0.05,-135.23 19.62 80
6 06/18/2016 22:28:41 0.05,-135.42 -0.10,-136.00 66.65 80
7 06/19/2016 22:12:36 0.04,-135.44 0.93,-131.48 451.68 80
8 06/21/2016 10:31:44 -0.06,-135.49 0.24,-136.75 144.32 80
9 06/22/2016 10:15:39
